UAE9875 OMDB-EDDF

Flight info

Callsign UAE9875
Flight time N/A
Altitude 29000
Route ANVIX L223 TARDI N629 BOTAM Y855 LAKLU/N0501F280 Q204 NALKI G652 TOKRA DCT ALROK DCT BOSOB DCT ITRUX Y511 NAGBO/N0505F300 Y511 PMA Z712 WEJ L677 GESON Q777 RASDA DCT OTHON UN128 RDS UL609 MES DCT EVIVI DCT OKANA DCT NIVIS/N0486F320 DCT BABIT DCT ARSIN DCT BUDEX DCT IPDUL DCT RAPET T170 VAGAB/N0453F240 T170 GAPLA T178 KERAX KERAX5D
Aircraft B77L/H-SDE1E2E3FGHIJ2J3J4J5M1RWXY/LB1D1

Departure

Time N/A
Airport Dubai International Airport (OMDB)

Arrival

Time 2026-05-07 19:23
Airport Frankfurt Main Airport (EDDF)
Time Latitude Longitude Altitude Speed Heading
2026-05-07 15:06 25.91469 37.96912 32006 ft 495 kts 302°
2026-05-07 15:06 25.95163 37.90453 31993 ft 496 kts 302°
2026-05-07 15:07 25.98748 37.83908 31992 ft 496 kts 296°
2026-05-07 15:07 26.01110 37.76711 32008 ft 496 kts 283°
2026-05-07 15:08 26.02217 37.69149 32010 ft 495 kts 278°
2026-05-07 15:08 26.04102 37.61827 32018 ft 494 kts 295°
2026-05-07 15:09 26.07648 37.55296 32032 ft 495 kts 305°
2026-05-07 15:09 26.09653 37.52173 32260 ft 496 kts 306°
2026-05-07 15:09 26.11656 37.49050 32638 ft 495 kts 305°
2026-05-07 15:10 26.13636 37.45945 33152 ft 490 kts 305°
2026-05-07 15:10 26.15596 37.42848 33510 ft 489 kts 305°
2026-05-07 15:10 26.17546 37.39750 33800 ft 489 kts 305°
2026-05-07 15:10 26.19494 37.36639 33956 ft 492 kts 305°
2026-05-07 15:11 26.23395 37.30389 34001 ft 489 kts 304°
2026-05-07 15:11 26.27254 37.24195 33999 ft 485 kts 304°
2026-05-07 15:12 26.31096 37.18025 34002 ft 484 kts 304°
2026-05-07 15:12 26.34932 37.11856 34005 ft 484 kts 304°
2026-05-07 15:13 26.38771 37.05676 34004 ft 485 kts 304°
2026-05-07 15:13 26.42610 36.99487 34004 ft 485 kts 304°
2026-05-07 15:14 26.46426 36.93326 34004 ft 486 kts 304°
2026-05-07 15:14 26.50272 36.87109 34003 ft 486 kts 304°
2026-05-07 15:15 26.54114 36.80890 33999 ft 487 kts 304°
2026-05-07 15:15 26.57952 36.74669 34003 ft 486 kts 304°
2026-05-07 15:16 26.61786 36.68445 34001 ft 486 kts 304°
2026-05-07 15:16 26.65614 36.62223 33999 ft 486 kts 304°
2026-05-07 15:17 26.69439 36.55998 34003 ft 485 kts 304°
2026-05-07 15:17 26.73255 36.49777 34001 ft 485 kts 304°
2026-05-07 15:18 26.77065 36.43559 34001 ft 484 kts 304°
2026-05-07 15:18 26.80867 36.37345 34002 ft 484 kts 304°
2026-05-07 15:19 26.84667 36.31124 34001 ft 483 kts 304°
2026-05-07 15:19 26.88458 36.24911 34001 ft 483 kts 304°
2026-05-07 15:20 26.92248 36.18691 34001 ft 483 kts 304°
2026-05-07 15:20 26.96013 36.12504 34003 ft 483 kts 304°
2026-05-07 15:21 26.99801 36.06268 34001 ft 484 kts 304°
2026-05-07 15:21 27.03585 36.00033 34003 ft 484 kts 304°
2026-05-07 15:22 27.07369 35.93787 34001 ft 484 kts 304°
2026-05-07 15:22 27.11155 35.87530 34003 ft 484 kts 304°
2026-05-07 15:23 27.14934 35.81275 34001 ft 484 kts 304°
2026-05-07 15:23 27.18709 35.75018 34001 ft 484 kts 304°
2026-05-07 15:24 27.22481 35.68757 34001 ft 484 kts 304°
2026-05-07 15:24 27.26248 35.62496 34002 ft 484 kts 304°
2026-05-07 15:25 27.30013 35.56229 34001 ft 483 kts 304°
2026-05-07 15:25 27.33771 35.49964 34000 ft 483 kts 304°
2026-05-07 15:26 27.37527 35.43694 34001 ft 483 kts 304°
2026-05-07 15:26 27.41281 35.37419 34000 ft 483 kts 304°
2026-05-07 15:27 27.45008 35.31181 34001 ft 483 kts 304°
2026-05-07 15:27 27.48754 35.24902 34000 ft 483 kts 304°
2026-05-07 15:28 27.52501 35.18611 34002 ft 483 kts 304°
2026-05-07 15:28 27.56244 35.12318 34002 ft 483 kts 304°
2026-05-07 15:29 27.59985 35.06018 34001 ft 483 kts 304°
2026-05-07 15:29 27.63722 34.99718 34001 ft 483 kts 303°
2026-05-07 15:30 27.67458 34.93410 34002 ft 483 kts 303°
2026-05-07 15:30 27.71192 34.87096 34001 ft 484 kts 303°
2026-05-07 15:31 27.74922 34.80779 34002 ft 484 kts 303°
2026-05-07 15:31 27.78649 34.74458 34002 ft 484 kts 303°
2026-05-07 15:32 27.82374 34.68130 34002 ft 484 kts 303°
2026-05-07 15:32 27.86095 34.61802 34001 ft 484 kts 303°
2026-05-07 15:33 27.89813 34.55466 34000 ft 484 kts 303°
2026-05-07 15:33 27.93530 34.49133 34002 ft 483 kts 304°
2026-05-07 15:34 27.97802 34.43274 33994 ft 483 kts 316°
2026-05-07 15:34 28.02507 34.37855 34002 ft 483 kts 310°
2026-05-07 15:35 28.06703 34.31982 34000 ft 483 kts 308°
2026-05-07 15:35 28.10895 34.26015 34006 ft 485 kts 309°
2026-05-07 15:36 28.15144 34.20067 34003 ft 486 kts 309°
2026-05-07 15:36 28.19431 34.14118 34000 ft 488 kts 309°
2026-05-07 15:37 28.23733 34.08148 33999 ft 490 kts 309°
2026-05-07 15:37 28.28060 34.02129 34003 ft 494 kts 309°
2026-05-07 15:38 28.32406 33.96072 34011 ft 496 kts 309°
2026-05-07 15:38 28.36772 33.89977 34003 ft 498 kts 309°
2026-05-07 15:39 28.41138 33.83873 34003 ft 498 kts 309°
2026-05-07 15:39 28.45499 33.77768 34004 ft 496 kts 309°
2026-05-07 15:40 28.49803 33.71733 33991 ft 487 kts 309°
2026-05-07 15:40 28.54064 33.65753 34004 ft 486 kts 309°
2026-05-07 15:41 28.58310 33.59775 34003 ft 486 kts 309°
2026-05-07 15:41 28.62528 33.53829 34005 ft 486 kts 309°
2026-05-07 15:42 28.66776 33.47842 34005 ft 486 kts 309°
2026-05-07 15:42 28.71024 33.41854 34000 ft 486 kts 309°
2026-05-07 15:43 28.75269 33.35859 34005 ft 486 kts 309°
2026-05-07 15:43 28.79511 33.29858 33998 ft 486 kts 309°
2026-05-07 15:44 28.83747 33.23857 34005 ft 485 kts 309°
2026-05-07 15:44 28.87977 33.17856 33998 ft 485 kts 309°
2026-05-07 15:45 28.92199 33.11857 34000 ft 484 kts 309°
2026-05-07 15:45 28.96411 33.05864 34001 ft 484 kts 309°
2026-05-07 15:46 29.02718 32.96874 34001 ft 483 kts 308°
2026-05-07 15:47 29.06912 32.90884 34002 ft 483 kts 308°
2026-05-07 15:47 29.11112 32.84878 34002 ft 483 kts 308°
2026-05-07 15:48 29.15301 32.78877 34001 ft 483 kts 308°
2026-05-07 15:48 29.19488 32.72871 34001 ft 483 kts 308°
2026-05-07 15:49 29.23647 32.66897 34001 ft 483 kts 308°
2026-05-07 15:49 29.27834 32.60875 34002 ft 483 kts 308°
2026-05-07 15:50 29.32006 32.54831 34001 ft 484 kts 308°
2026-05-07 15:50 29.36162 32.48763 33997 ft 485 kts 308°
2026-05-07 15:51 29.39649 32.43664 34005 ft 485 kts 308°
2026-05-07 15:51 29.43822 32.37561 34001 ft 487 kts 308°
2026-05-07 15:52 29.47975 32.31481 34003 ft 488 kts 308°
2026-05-07 15:52 29.52168 32.25333 34003 ft 490 kts 308°
2026-05-07 15:53 29.56366 32.19169 34010 ft 490 kts 308°
2026-05-07 15:53 29.60558 32.13003 34001 ft 489 kts 308°
2026-05-07 15:54 29.64737 32.06848 33997 ft 487 kts 308°
2026-05-07 15:54 29.68895 32.00713 33997 ft 485 kts 308°
2026-05-07 15:55 29.73034 31.94597 34001 ft 484 kts 308°
2026-05-07 15:55 29.77140 31.88522 33998 ft 483 kts 308°
2026-05-07 15:56 29.81209 31.82362 34004 ft 484 kts 306°
2026-05-07 15:56 29.85200 31.76104 34003 ft 484 kts 306°
2026-05-07 15:57 29.89269 31.69926 33991 ft 483 kts 313°
2026-05-07 15:57 29.91845 31.67449 34004 ft 483 kts 329°
2026-05-07 15:57 29.94855 31.65758 34009 ft 483 kts 341°
2026-05-07 15:57 29.98121 31.64892 34006 ft 481 kts 352°
2026-05-07 15:58 30.01442 31.64376 34012 ft 483 kts 352°
2026-05-07 15:58 30.08122 31.63290 34011 ft 487 kts 352°
2026-05-07 15:59 30.14838 31.62120 34008 ft 489 kts 351°
2026-05-07 15:59 30.21572 31.60910 34006 ft 490 kts 351°
2026-05-07 16:00 30.28301 31.59693 33996 ft 489 kts 351°
2026-05-07 16:00 30.35011 31.58481 33999 ft 487 kts 351°
2026-05-07 16:01 30.41652 31.57282 33999 ft 485 kts 351°
2026-05-07 16:01 30.48289 31.56083 34000 ft 483 kts 351°
2026-05-07 16:02 30.54900 31.54886 34000 ft 482 kts 351°
2026-05-07 16:02 30.61519 31.53686 34000 ft 481 kts 351°
2026-05-07 16:03 30.68142 31.52484 34001 ft 481 kts 351°
2026-05-07 16:03 30.74765 31.51280 34002 ft 482 kts 351°
2026-05-07 16:04 30.81398 31.50075 34002 ft 483 kts 351°
2026-05-07 16:04 30.88040 31.48869 34002 ft 483 kts 351°
2026-05-07 16:05 30.94692 31.47658 34002 ft 484 kts 351°
2026-05-07 16:05 31.01306 31.46453 34002 ft 484 kts 351°
2026-05-07 16:06 31.07969 31.45236 34001 ft 485 kts 351°
2026-05-07 16:06 31.14633 31.44018 34001 ft 485 kts 351°
2026-05-07 16:07 31.21304 31.42796 34001 ft 485 kts 351°
2026-05-07 16:07 31.27967 31.41571 34000 ft 485 kts 351°
2026-05-07 16:08 31.34623 31.40323 34000 ft 484 kts 351°
2026-05-07 16:08 31.41286 31.39071 34001 ft 484 kts 351°
2026-05-07 16:09 31.47937 31.37822 34000 ft 484 kts 351°
2026-05-07 16:09 31.54585 31.36574 34001 ft 484 kts 351°
2026-05-07 16:10 31.61275 31.35736 34004 ft 483 kts 355°
2026-05-07 16:10 31.67982 31.35098 34000 ft 483 kts 355°
2026-05-07 16:11 31.74686 31.34432 34003 ft 483 kts 355°
2026-05-07 16:11 31.81346 31.33744 34000 ft 484 kts 355°
2026-05-07 16:12 31.88052 31.33050 34002 ft 484 kts 355°
2026-05-07 16:12 31.94760 31.32348 34002 ft 484 kts 355°
2026-05-07 16:13 32.01469 31.31644 34002 ft 484 kts 355°
2026-05-07 16:13 32.08184 31.30940 34001 ft 484 kts 355°
2026-05-07 16:14 32.14894 31.30241 34002 ft 484 kts 355°
2026-05-07 16:14 32.21603 31.29532 33999 ft 484 kts 355°
2026-05-07 16:15 32.28311 31.28804 34001 ft 484 kts 355°
2026-05-07 16:15 32.35021 31.28074 34001 ft 484 kts 355°
2026-05-07 16:16 32.41728 31.27347 34002 ft 484 kts 355°
2026-05-07 16:16 32.48439 31.26618 34002 ft 484 kts 355°
2026-05-07 16:17 32.55134 31.25732 33993 ft 484 kts 348°
2026-05-07 16:17 32.61572 31.23454 34004 ft 483 kts 337°
2026-05-07 16:18 32.67583 31.20010 34007 ft 483 kts 333°
2026-05-07 16:18 32.73590 31.16419 34004 ft 484 kts 333°
2026-05-07 16:19 32.79616 31.12860 34002 ft 484 kts 334°
2026-05-07 16:19 32.85663 31.09315 34001 ft 484 kts 334°
2026-05-07 16:20 32.91708 31.05771 34001 ft 484 kts 334°
2026-05-07 16:20 32.97755 31.02218 34001 ft 484 kts 334°
2026-05-07 16:21 33.03795 30.98661 34002 ft 484 kts 334°
2026-05-07 16:21 33.09837 30.95092 34002 ft 484 kts 333°
2026-05-07 16:22 33.15681 30.91194 33999 ft 484 kts 330°
2026-05-07 16:22 33.21497 30.87138 34001 ft 484 kts 329°
2026-05-07 16:23 33.27317 30.83083 34002 ft 484 kts 330°
2026-05-07 16:23 33.33142 30.79047 34001 ft 484 kts 330°
2026-05-07 16:24 33.38976 30.75010 34001 ft 484 kts 330°
2026-05-07 16:24 33.44807 30.70971 34001 ft 484 kts 330°
2026-05-07 16:25 33.50633 30.66927 34001 ft 484 kts 330°
2026-05-07 16:25 33.56459 30.62875 34000 ft 484 kts 330°
2026-05-07 16:26 33.62287 30.58816 34001 ft 484 kts 330°
2026-05-07 16:26 33.68113 30.54752 34000 ft 484 kts 330°
2026-05-07 16:27 33.73894 30.50713 34002 ft 484 kts 330°
2026-05-07 16:27 33.79713 30.46641 34001 ft 484 kts 329°
2026-05-07 16:28 33.85538 30.42558 34001 ft 484 kts 329°
2026-05-07 16:28 33.91353 30.38476 34001 ft 484 kts 329°
2026-05-07 16:29 33.97168 30.34387 34001 ft 484 kts 329°
2026-05-07 16:29 34.02987 30.30289 34000 ft 484 kts 329°
2026-05-07 16:30 34.08798 30.26190 34001 ft 484 kts 329°
2026-05-07 16:30 34.14609 30.22084 34001 ft 484 kts 329°
2026-05-07 16:31 34.20420 30.17972 34000 ft 484 kts 329°
2026-05-07 16:31 34.26229 30.13854 34001 ft 484 kts 329°
2026-05-07 16:32 34.32039 30.09728 34000 ft 484 kts 329°
2026-05-07 16:32 34.37845 30.05599 34001 ft 484 kts 329°
2026-05-07 16:33 34.43590 30.01451 33999 ft 484 kts 326°
2026-05-07 16:33 34.48822 29.96337 33998 ft 484 kts 315°
2026-05-07 16:34 34.53506 29.90492 34006 ft 483 kts 314°
2026-05-07 16:34 34.58187 29.84625 34003 ft 484 kts 314°
2026-05-07 16:35 34.62891 29.78780 34001 ft 484 kts 314°
2026-05-07 16:35 34.67609 29.72935 34000 ft 484 kts 314°
2026-05-07 16:36 34.72327 29.67083 34001 ft 484 kts 314°
2026-05-07 16:36 34.77042 29.61221 34002 ft 484 kts 314°
2026-05-07 16:37 34.81723 29.55390 34001 ft 484 kts 314°
2026-05-07 16:37 34.86434 29.49511 34001 ft 484 kts 314°
2026-05-07 16:38 34.91134 29.43635 34002 ft 484 kts 314°
2026-05-07 16:38 34.95837 29.37747 34001 ft 484 kts 314°
2026-05-07 16:39 35.00676 29.32037 33992 ft 484 kts 321°
2026-05-07 16:39 35.05144 29.27941 34007 ft 483 kts 323°
2026-05-07 16:40 35.10579 29.23074 34000 ft 484 kts 323°
2026-05-07 16:40 35.16862 29.17383 34002 ft 484 kts 323°
2026-05-07 16:41 35.21377 29.13255 34002 ft 484 kts 323°
2026-05-07 16:41 35.26767 29.08308 34001 ft 484 kts 323°
2026-05-07 16:42 35.32156 29.03355 34001 ft 484 kts 323°
2026-05-07 16:42 35.37509 28.98428 34000 ft 484 kts 323°
2026-05-07 16:43 35.42895 28.93464 34001 ft 484 kts 323°
2026-05-07 16:43 35.48282 28.88491 34001 ft 484 kts 323°
2026-05-07 16:44 35.53664 28.83513 34002 ft 484 kts 323°
2026-05-07 16:44 35.59048 28.78525 34001 ft 484 kts 323°
2026-05-07 16:45 35.64426 28.73533 34001 ft 484 kts 323°
2026-05-07 16:45 35.69806 28.68531 34000 ft 484 kts 323°
2026-05-07 16:46 35.75141 28.63562 34001 ft 484 kts 323°
2026-05-07 16:46 35.80512 28.58551 34001 ft 484 kts 323°
2026-05-07 16:47 35.85878 28.53536 34002 ft 484 kts 323°
2026-05-07 16:47 35.91240 28.48515 34002 ft 484 kts 323°
2026-05-07 16:48 35.96603 28.43485 34001 ft 484 kts 322°
2026-05-07 16:48 36.01963 28.38450 34002 ft 484 kts 322°
2026-05-07 16:49 36.07324 28.33411 34002 ft 484 kts 322°
2026-05-07 16:49 36.12684 28.28365 34001 ft 484 kts 322°
2026-05-07 16:50 36.18038 28.23315 34001 ft 484 kts 322°
2026-05-07 16:50 36.23394 28.18253 34001 ft 484 kts 322°
2026-05-07 16:51 36.28745 28.13187 34000 ft 484 kts 322°
2026-05-07 16:51 36.34092 28.08093 33998 ft 485 kts 321°
2026-05-07 16:52 36.39121 28.02520 33997 ft 485 kts 316°
2026-05-07 16:52 36.44008 27.96758 34003 ft 485 kts 316°
2026-05-07 16:53 36.48912 27.90998 34001 ft 485 kts 317°
2026-05-07 16:53 36.53835 27.85271 34000 ft 485 kts 317°
2026-05-07 16:54 36.58768 27.79548 34001 ft 485 kts 317°
2026-05-07 16:54 36.63699 27.73817 34004 ft 485 kts 317°
2026-05-07 16:55 36.68626 27.68076 34000 ft 485 kts 317°
2026-05-07 16:55 36.73547 27.62332 33998 ft 485 kts 317°
2026-05-07 16:56 36.78472 27.56570 34004 ft 485 kts 317°
2026-05-07 16:56 36.85817 27.47959 34000 ft 485 kts 316°
2026-05-07 16:57 36.90734 27.42181 34001 ft 485 kts 316°
2026-05-07 16:57 36.95642 27.36403 34001 ft 485 kts 316°
2026-05-07 16:58 37.00549 27.30615 33999 ft 484 kts 316°
2026-05-07 16:58 37.05449 27.24825 34004 ft 484 kts 316°
2026-05-07 16:59 37.10345 27.19028 34001 ft 484 kts 316°
2026-05-07 16:59 37.15239 27.13223 34001 ft 484 kts 316°
2026-05-07 17:00 37.20128 27.07413 34002 ft 484 kts 316°
2026-05-07 17:00 37.25012 27.01598 34002 ft 484 kts 316°
2026-05-07 17:01 37.29899 26.95768 34001 ft 484 kts 316°
2026-05-07 17:01 37.34780 26.89934 34001 ft 484 kts 316°
2026-05-07 17:02 37.39658 26.84097 34002 ft 484 kts 317°
2026-05-07 17:02 37.44684 26.78549 34000 ft 484 kts 320°
2026-05-07 17:03 37.49825 26.73084 34001 ft 484 kts 320°
2026-05-07 17:03 37.54955 26.67584 34003 ft 484 kts 319°
2026-05-07 17:04 37.60070 26.62049 34001 ft 484 kts 319°
2026-05-07 17:04 37.65180 26.56507 34002 ft 484 kts 319°
2026-05-07 17:05 37.70286 26.50960 34002 ft 484 kts 319°
2026-05-07 17:05 37.75387 26.45390 34001 ft 485 kts 319°
2026-05-07 17:06 37.80482 26.39811 34001 ft 485 kts 319°
2026-05-07 17:06 37.85575 26.34229 34001 ft 485 kts 319°
2026-05-07 17:07 37.90671 26.28644 34002 ft 484 kts 319°
2026-05-07 17:07 37.95768 26.23061 34002 ft 484 kts 319°
2026-05-07 17:08 38.00827 26.17506 34001 ft 484 kts 319°
2026-05-07 17:08 38.05921 26.11901 34001 ft 484 kts 319°
2026-05-07 17:09 38.11011 26.06293 34001 ft 484 kts 319°
2026-05-07 17:09 38.16098 26.00677 34000 ft 484 kts 319°
2026-05-07 17:10 38.21184 25.95052 34001 ft 485 kts 319°
2026-05-07 17:10 38.26419 25.89653 33997 ft 485 kts 326°
2026-05-07 17:11 38.32223 25.85284 34007 ft 484 kts 330°
2026-05-07 17:11 38.38082 25.81039 34005 ft 485 kts 330°
2026-05-07 17:12 38.43931 25.76753 34000 ft 485 kts 330°
2026-05-07 17:12 38.49765 25.72432 34000 ft 485 kts 330°
2026-05-07 17:13 38.55593 25.68095 34001 ft 485 kts 329°
2026-05-07 17:13 38.61420 25.63750 34001 ft 485 kts 329°
2026-05-07 17:14 38.67246 25.59400 34002 ft 485 kts 329°
2026-05-07 17:14 38.73067 25.55046 34002 ft 484 kts 329°
2026-05-07 17:15 38.78847 25.50715 34000 ft 484 kts 329°
2026-05-07 17:15 38.84660 25.46351 34001 ft 484 kts 329°
2026-05-07 17:16 38.90477 25.41976 34001 ft 484 kts 329°
2026-05-07 17:16 38.96287 25.37597 34001 ft 484 kts 329°
2026-05-07 17:17 39.02099 25.33207 34002 ft 484 kts 329°
2026-05-07 17:17 39.07910 25.28811 34001 ft 484 kts 329°
2026-05-07 17:18 39.13715 25.24411 34001 ft 484 kts 329°
2026-05-07 17:18 39.19521 25.20001 34000 ft 484 kts 329°
2026-05-07 17:19 39.25325 25.15584 34002 ft 484 kts 329°
2026-05-07 17:19 39.31090 25.11189 34001 ft 484 kts 329°
2026-05-07 17:20 39.51774 24.95348 34001 ft 485 kts 329°
2026-05-07 17:20 39.74947 24.77468 34003 ft 485 kts 329°
2026-05-07 17:21 39.98107 24.59457 34003 ft 485 kts 329°
2026-05-07 17:21 40.21224 24.41335 34001 ft 485 kts 329°
2026-05-07 17:22 40.44355 24.23054 34000 ft 485 kts 329°
2026-05-07 17:22 40.67418 24.04679 34001 ft 485 kts 328°
2026-05-07 17:23 40.80737 23.93999 34021 ft 485 kts 327°
2026-05-07 17:23 40.83568 23.91728 34059 ft 467 kts 326°
2026-05-07 17:23 40.86295 23.89537 34090 ft 449 kts 325°
2026-05-07 17:24 40.88924 23.87425 34084 ft 438 kts 324°
2026-05-07 17:24 40.91543 23.85309 34110 ft 444 kts 324°
2026-05-07 17:24 40.96907 23.80961 34020 ft 460 kts 328°
2026-05-07 17:25 41.02451 23.76474 34015 ft 474 kts 328°
2026-05-07 17:25 41.08156 23.71851 34014 ft 486 kts 328°
2026-05-07 17:26 41.13972 23.67125 34007 ft 492 kts 328°
2026-05-07 17:26 41.19834 23.62351 34004 ft 495 kts 328°
2026-05-07 17:27 41.25711 23.57554 33993 ft 497 kts 328°
2026-05-07 17:27 41.31594 23.52742 34006 ft 493 kts 328°
2026-05-07 17:28 41.36408 23.48797 33993 ft 487 kts 328°
2026-05-07 17:28 41.42239 23.44230 34007 ft 486 kts 333°
2026-05-07 17:29 41.48323 23.40274 34003 ft 486 kts 334°
2026-05-07 17:29 41.54387 23.36386 34000 ft 487 kts 334°
2026-05-07 17:30 41.60480 23.32432 33998 ft 488 kts 334°
2026-05-07 17:30 41.66583 23.28434 34000 ft 489 kts 334°
2026-05-07 17:31 41.72690 23.24416 34005 ft 490 kts 334°
2026-05-07 17:31 41.78809 23.20384 34004 ft 490 kts 334°
2026-05-07 17:32 41.84931 23.16342 34000 ft 491 kts 334°
2026-05-07 17:32 41.91056 23.12291 34002 ft 490 kts 334°
2026-05-07 17:33 41.97162 23.08243 33998 ft 489 kts 334°
2026-05-07 17:33 42.03250 23.04199 34001 ft 488 kts 334°
2026-05-07 17:34 42.09328 23.00153 33999 ft 487 kts 334°
2026-05-07 17:34 42.15393 22.96106 34001 ft 487 kts 333°
2026-05-07 17:35 42.21461 22.92049 34009 ft 487 kts 333°
2026-05-07 17:35 42.27612 22.87926 33906 ft 501 kts 333°
2026-05-07 17:36 42.33919 22.83690 34014 ft 514 kts 333°
2026-05-07 17:36 42.40382 22.79339 34021 ft 531 kts 333°
2026-05-07 17:37 42.47101 22.74807 34013 ft 548 kts 333°
2026-05-07 17:37 42.54024 22.70125 34028 ft 564 kts 333°
2026-05-07 17:38 42.61154 22.65289 34011 ft 581 kts 333°
2026-05-07 17:38 42.68455 22.60326 34009 ft 590 kts 333°
2026-05-07 17:39 42.75793 22.55323 33996 ft 590 kts 333°
2026-05-07 17:39 42.83085 22.50242 33996 ft 587 kts 329°
2026-05-07 17:40 42.89802 22.44030 34005 ft 581 kts 319°
2026-05-07 17:40 42.96068 22.37192 34004 ft 579 kts 318°
2026-05-07 17:41 43.02358 22.30314 33998 ft 578 kts 318°
2026-05-07 17:41 43.08665 22.23496 34001 ft 577 kts 319°
2026-05-07 17:42 43.14980 22.16699 34005 ft 578 kts 319°
2026-05-07 17:42 43.21300 22.09879 34004 ft 579 kts 319°
2026-05-07 17:43 43.27627 22.03023 34005 ft 580 kts 319°
2026-05-07 17:43 43.33944 21.96157 34004 ft 578 kts 318°
2026-05-07 17:44 43.40244 21.89289 34005 ft 578 kts 318°
2026-05-07 17:44 43.46538 21.82409 34001 ft 577 kts 318°
2026-05-07 17:45 43.52825 21.75519 34003 ft 577 kts 318°
2026-05-07 17:45 43.59097 21.68627 33999 ft 576 kts 318°
2026-05-07 17:46 43.65358 21.61727 34002 ft 576 kts 318°
2026-05-07 17:46 43.71578 21.54854 34001 ft 576 kts 318°
2026-05-07 17:47 43.77868 21.47883 34004 ft 576 kts 318°
2026-05-07 17:47 43.84074 21.40987 34001 ft 576 kts 318°
2026-05-07 17:48 43.90318 21.34031 33998 ft 575 kts 318°
2026-05-07 17:48 43.96548 21.27069 34005 ft 575 kts 318°
2026-05-07 17:49 44.02776 21.20092 34002 ft 575 kts 317°
2026-05-07 17:49 44.09005 21.13094 34002 ft 575 kts 317°
2026-05-07 17:50 44.15231 21.06079 33996 ft 576 kts 317°
2026-05-07 17:50 44.21450 20.99052 34003 ft 576 kts 317°
2026-05-07 17:51 44.27664 20.92011 34000 ft 576 kts 317°
2026-05-07 17:51 44.33841 20.84993 33999 ft 576 kts 317°
2026-05-07 17:52 44.40054 20.77915 34004 ft 576 kts 317°
2026-05-07 17:52 44.46258 20.70825 34001 ft 576 kts 317°
2026-05-07 17:53 44.52463 20.63715 34001 ft 576 kts 317°
2026-05-07 17:53 44.58662 20.56593 34003 ft 576 kts 317°
2026-05-07 17:54 44.64861 20.49448 34000 ft 576 kts 317°
2026-05-07 17:54 44.71053 20.42293 34005 ft 577 kts 317°
2026-05-07 17:55 44.77245 20.35116 33998 ft 576 kts 317°
2026-05-07 17:55 44.83418 20.27941 33999 ft 575 kts 317°
2026-05-07 17:56 44.89584 20.20753 34002 ft 575 kts 317°
2026-05-07 17:56 44.95697 20.13606 34002 ft 574 kts 317°
2026-05-07 17:57 45.00845 20.07571 34000 ft 574 kts 317°
2026-05-07 17:57 45.07983 19.99180 34003 ft 574 kts 316°
2026-05-07 17:58 45.14125 19.91937 34004 ft 575 kts 316°
2026-05-07 17:58 45.20273 19.84665 34005 ft 576 kts 316°
2026-05-07 17:59 45.26420 19.77365 33999 ft 576 kts 316°
2026-05-07 17:59 45.32458 19.69911 34001 ft 575 kts 315°
2026-05-07 18:00 45.38444 19.62359 34000 ft 574 kts 314°
2026-05-07 18:00 45.44429 19.54819 34001 ft 574 kts 315°
2026-05-07 18:01 45.50382 19.47340 34000 ft 574 kts 315°
2026-05-07 18:01 45.56373 19.39800 34003 ft 574 kts 315°
2026-05-07 18:02 45.65336 19.28468 34002 ft 574 kts 314°
2026-05-07 18:03 45.71306 19.20890 34001 ft 574 kts 314°
2026-05-07 18:03 45.77276 19.13289 34001 ft 574 kts 314°
2026-05-07 18:04 45.83237 19.05677 34003 ft 574 kts 314°
2026-05-07 18:04 45.89195 18.98046 34001 ft 574 kts 314°
2026-05-07 18:05 45.95106 18.90459 34002 ft 574 kts 314°
2026-05-07 18:05 46.01078 18.82825 33999 ft 574 kts 314°
2026-05-07 18:06 46.07046 18.75191 34004 ft 574 kts 314°
2026-05-07 18:06 46.13010 18.67531 33999 ft 574 kts 314°
2026-05-07 18:07 46.18969 18.59847 34004 ft 575 kts 314°
2026-05-07 18:07 46.24924 18.52143 33997 ft 575 kts 314°
2026-05-07 18:08 46.30870 18.44429 34007 ft 574 kts 314°
2026-05-07 18:08 46.36803 18.36707 34002 ft 575 kts 314°
2026-05-07 18:09 46.42744 18.28952 33999 ft 575 kts 314°
2026-05-07 18:09 46.48678 18.21182 34004 ft 575 kts 314°
2026-05-07 18:10 46.54600 18.13405 33999 ft 575 kts 314°
2026-05-07 18:10 46.60526 18.05598 33996 ft 575 kts 314°
2026-05-07 18:11 46.66440 17.97783 34002 ft 574 kts 314°
2026-05-07 18:11 46.72349 17.89949 34001 ft 574 kts 314°
2026-05-07 18:12 46.78252 17.82099 33998 ft 574 kts 313°
2026-05-07 18:12 46.84111 17.74286 34003 ft 574 kts 313°
2026-05-07 18:13 46.90002 17.66403 34003 ft 574 kts 313°
2026-05-07 18:13 46.95896 17.58493 33995 ft 575 kts 313°
2026-05-07 18:14 47.01776 17.50575 34003 ft 575 kts 313°
2026-05-07 18:14 47.07659 17.42630 34001 ft 575 kts 313°
2026-05-07 18:15 47.13538 17.34666 34003 ft 575 kts 313°
2026-05-07 18:15 47.19404 17.26694 34000 ft 574 kts 313°
2026-05-07 18:16 47.25261 17.18708 34002 ft 574 kts 313°
2026-05-07 18:16 47.31113 17.10703 34005 ft 574 kts 313°
2026-05-07 18:17 47.36960 17.02680 33997 ft 574 kts 313°
2026-05-07 18:17 47.42798 16.94645 34003 ft 574 kts 313°
2026-05-07 18:18 47.47645 16.87952 34003 ft 574 kts 313°
2026-05-07 18:18 47.53472 16.79885 34001 ft 574 kts 313°
2026-05-07 18:19 47.59118 16.71582 33997 ft 570 kts 307°
2026-05-07 18:19 47.64350 16.62774 34005 ft 569 kts 305°
2026-05-07 18:20 47.69532 16.53886 34001 ft 570 kts 306°
2026-05-07 18:20 47.74743 16.45010 34000 ft 570 kts 306°
2026-05-07 18:21 47.79976 16.36138 34004 ft 571 kts 306°
2026-05-07 18:21 47.85209 16.27250 33999 ft 571 kts 306°
2026-05-07 18:22 47.90437 16.18332 34000 ft 571 kts 306°
2026-05-07 18:22 47.95658 16.09388 34006 ft 572 kts 306°
2026-05-07 18:23 48.00879 16.00414 34002 ft 573 kts 306°
2026-05-07 18:23 48.06100 15.91408 33997 ft 574 kts 306°
2026-05-07 18:24 48.11321 15.82372 33991 ft 574 kts 305°
2026-05-07 18:24 48.16492 15.73398 34001 ft 572 kts 305°
2026-05-07 18:25 48.21678 15.64369 34006 ft 571 kts 305°
2026-05-07 18:25 48.26848 15.55331 34004 ft 571 kts 305°
2026-05-07 18:26 48.32014 15.46267 33993 ft 571 kts 305°
2026-05-07 18:26 48.37177 15.37180 33998 ft 572 kts 305°
2026-05-07 18:27 48.42340 15.28063 34003 ft 573 kts 305°
2026-05-07 18:27 48.47506 15.18909 33997 ft 573 kts 305°
2026-05-07 18:28 48.52664 15.09739 34001 ft 573 kts 304°
2026-05-07 18:28 48.57814 15.00551 34006 ft 574 kts 304°
2026-05-07 18:29 48.62965 14.91328 34002 ft 574 kts 304°
2026-05-07 18:29 48.68107 14.82088 34003 ft 574 kts 304°
2026-05-07 18:30 48.73245 14.72824 34003 ft 574 kts 304°
2026-05-07 18:30 48.78375 14.63544 34000 ft 574 kts 304°
2026-05-07 18:31 48.83348 14.54514 33996 ft 573 kts 304°
2026-05-07 18:31 48.88443 14.45232 34001 ft 572 kts 304°
2026-05-07 18:32 48.93639 14.36080 33994 ft 575 kts 310°
2026-05-07 18:32 48.99626 14.28085 33991 ft 580 kts 321°
2026-05-07 18:33 49.06237 14.21055 34004 ft 580 kts 323°
2026-05-07 18:33 49.12819 14.14081 33997 ft 580 kts 322°
2026-05-07 18:34 49.19118 14.07250 34002 ft 580 kts 322°
2026-05-07 18:34 49.25676 14.00062 34004 ft 579 kts 322°
2026-05-07 18:35 49.32100 13.93011 34008 ft 580 kts 322°
2026-05-07 18:35 49.38528 13.85905 33997 ft 579 kts 319°
2026-05-07 18:36 49.44487 13.77682 34001 ft 573 kts 308°
2026-05-07 18:36 49.49444 13.68486 34005 ft 569 kts 303°
2026-05-07 18:37 49.54225 13.59256 34005 ft 570 kts 303°
2026-05-07 18:37 49.59203 13.49737 34000 ft 571 kts 303°
2026-05-07 18:38 49.64199 13.40252 33998 ft 571 kts 303°
2026-05-07 18:38 49.68849 13.31407 34993 ft 563 kts 307°
2026-05-07 18:38 49.71218 13.26893 35527 ft 523 kts 307°
2026-05-07 18:39 49.73435 13.22670 35894 ft 495 kts 307°
2026-05-07 18:39 49.75523 13.18677 35554 ft 484 kts 307°
2026-05-07 18:39 49.77557 13.14773 35338 ft 472 kts 307°
2026-05-07 18:39 49.79590 13.10861 35132 ft 464 kts 307°
2026-05-07 18:40 49.81567 13.07046 34959 ft 467 kts 307°
2026-05-07 18:40 49.83614 13.03089 34727 ft 475 kts 307°
2026-05-07 18:40 49.85575 12.99294 34452 ft 481 kts 307°
2026-05-07 18:40 49.87661 12.95258 34291 ft 478 kts 307°
2026-05-07 18:41 49.89575 12.91555 34129 ft 476 kts 307°
2026-05-07 18:41 49.93641 12.83668 34046 ft 467 kts 307°
2026-05-07 18:42 49.97608 12.75942 34044 ft 476 kts 307°
2026-05-07 18:42 50.01700 12.67952 34027 ft 478 kts 307°
2026-05-07 18:43 50.05842 12.59842 34047 ft 479 kts 307°
2026-05-07 18:43 50.09969 12.51734 34036 ft 478 kts 307°
2026-05-07 18:44 50.14071 12.43653 34041 ft 477 kts 307°
2026-05-07 18:44 50.17975 12.35332 34057 ft 474 kts 300°
2026-05-07 18:45 50.20866 12.26156 34057 ft 470 kts 289°
2026-05-07 18:45 50.23023 12.16528 34057 ft 469 kts 288°
2026-05-07 18:46 50.25182 12.06926 34059 ft 469 kts 289°
2026-05-07 18:46 50.27380 11.97321 34053 ft 469 kts 289°
2026-05-07 18:47 50.29595 11.87707 34044 ft 470 kts 289°
2026-05-07 18:47 50.31806 11.78076 34051 ft 470 kts 289°
2026-05-07 18:48 50.34007 11.68430 34051 ft 471 kts 289°
2026-05-07 18:48 50.36203 11.58755 34049 ft 471 kts 289°
2026-05-07 18:49 50.38391 11.49067 34061 ft 472 kts 289°
2026-05-07 18:49 50.40565 11.39408 33900 ft 464 kts 289°
2026-05-07 18:49 50.41626 11.34673 33435 ft 457 kts 289°
2026-05-07 18:50 50.42668 11.30014 32517 ft 460 kts 289°
2026-05-07 18:50 50.43729 11.25244 31457 ft 466 kts 289°
2026-05-07 18:50 50.44802 11.20406 30427 ft 471 kts 290°
2026-05-07 18:50 50.45877 11.15543 29528 ft 471 kts 289°
2026-05-07 18:51 50.46944 11.10713 28847 ft 466 kts 289°
2026-05-07 18:51 50.47995 11.05942 28238 ft 459 kts 289°
2026-05-07 18:51 50.49031 11.01233 27641 ft 454 kts 289°
2026-05-07 18:51 50.50054 10.96569 27030 ft 449 kts 289°
2026-05-07 18:52 50.51066 10.91945 26386 ft 446 kts 289°
2026-05-07 18:52 50.52070 10.87352 25760 ft 443 kts 289°
2026-05-07 18:52 50.53064 10.82794 25182 ft 439 kts 289°
2026-05-07 18:52 50.54057 10.78287 24636 ft 435 kts 289°
2026-05-07 18:53 50.55014 10.73814 24250 ft 428 kts 285°
2026-05-07 18:53 50.55546 10.69246 23753 ft 425 kts 274°
2026-05-07 18:53 50.55582 10.64611 23079 ft 423 kts 266°
2026-05-07 18:53 50.55230 10.60050 22511 ft 418 kts 260°
2026-05-07 18:54 50.54748 10.55587 22192 ft 411 kts 261°
2026-05-07 18:54 50.54294 10.51148 21880 ft 413 kts 261°
2026-05-07 18:54 50.53847 10.46668 21566 ft 417 kts 261°
2026-05-07 18:54 50.53400 10.42155 21254 ft 417 kts 261°
2026-05-07 18:55 50.52955 10.37657 20938 ft 415 kts 261°
2026-05-07 18:55 50.52511 10.33189 20630 ft 413 kts 261°
2026-05-07 18:55 50.52068 10.28746 20322 ft 411 kts 261°
2026-05-07 18:55 50.51625 10.24323 20021 ft 409 kts 261°
2026-05-07 18:56 50.51182 10.19929 19714 ft 407 kts 261°
2026-05-07 18:56 50.50739 10.15543 19413 ft 405 kts 261°
2026-05-07 18:56 50.50297 10.11182 19102 ft 404 kts 261°
2026-05-07 18:56 50.49854 10.06832 18814 ft 402 kts 261°
2026-05-07 18:57 50.49411 10.02500 18521 ft 401 kts 261°
2026-05-07 18:57 50.48967 9.98179 18194 ft 400 kts 261°
2026-05-07 18:57 50.48524 9.93873 17867 ft 399 kts 261°
2026-05-07 18:57 50.48081 9.89591 17559 ft 397 kts 261°
2026-05-07 18:58 50.47638 9.85324 17258 ft 395 kts 261°
2026-05-07 18:58 50.47197 9.81087 16957 ft 393 kts 261°
2026-05-07 18:58 50.46756 9.76870 16670 ft 391 kts 261°
2026-05-07 18:58 50.46321 9.72726 16373 ft 388 kts 261°
2026-05-07 18:59 50.45882 9.68554 16085 ft 386 kts 261°
2026-05-07 18:59 50.45444 9.64409 15800 ft 384 kts 261°
2026-05-07 18:59 50.45006 9.60282 15515 ft 383 kts 261°
2026-05-07 18:59 50.44569 9.56174 15234 ft 381 kts 261°
2026-05-07 19:00 50.44132 9.52081 14949 ft 380 kts 261°
2026-05-07 19:00 50.43696 9.48008 14670 ft 378 kts 261°
2026-05-07 19:00 50.43259 9.43948 14390 ft 377 kts 261°
2026-05-07 19:00 50.42824 9.39901 14106 ft 376 kts 261°
2026-05-07 19:01 50.42387 9.35860 13825 ft 375 kts 261°
2026-05-07 19:01 50.41950 9.31836 13513 ft 374 kts 261°
2026-05-07 19:01 50.41406 9.27894 13202 ft 367 kts 250°
2026-05-07 19:01 50.40103 9.24470 13124 ft 369 kts 230°
2026-05-07 19:02 50.38172 9.21801 13079 ft 374 kts 214°
2026-05-07 19:02 50.35936 9.19696 13088 ft 376 kts 211°
2026-05-07 19:02 50.33687 9.17604 13081 ft 376 kts 212°
2026-05-07 19:02 50.31452 9.15476 13074 ft 376 kts 212°
2026-05-07 19:03 50.29227 9.13329 13070 ft 373 kts 214°
2026-05-07 19:03 50.27301 9.10709 13075 ft 367 kts 233°
2026-05-07 19:03 50.26079 9.07242 13076 ft 363 kts 250°
2026-05-07 19:03 50.25239 9.03539 13088 ft 370 kts 251°
2026-05-07 19:04 50.24376 8.99741 13075 ft 371 kts 251°
2026-05-07 19:04 50.23505 8.95947 13064 ft 370 kts 251°
2026-05-07 19:04 50.22633 8.92174 13064 ft 369 kts 251°
2026-05-07 19:04 50.21759 8.88417 13068 ft 368 kts 250°
2026-05-07 19:05 50.20882 8.84671 13071 ft 366 kts 250°
2026-05-07 19:05 50.20021 8.81007 13054 ft 352 kts 250°
2026-05-07 19:05 50.19470 8.78671 13027 ft 341 kts 250°
2026-05-07 19:05 50.18656 8.75224 12932 ft 327 kts 250°
2026-05-07 19:06 50.17894 8.72006 12842 ft 314 kts 250°
2026-05-07 19:06 50.16437 8.65860 12618 ft 290 kts 250°
2026-05-07 19:06 50.15747 8.62955 12423 ft 282 kts 250°
2026-05-07 19:07 50.15073 8.60120 12094 ft 277 kts 250°
2026-05-07 19:07 50.14403 8.57304 11693 ft 276 kts 250°
2026-05-07 19:07 50.13734 8.54498 11291 ft 276 kts 250°
2026-05-07 19:07 50.13067 8.51702 10891 ft 275 kts 250°
2026-05-07 19:08 50.12402 8.48920 10520 ft 273 kts 250°
2026-05-07 19:08 50.11738 8.46150 10163 ft 272 kts 250°
2026-05-07 19:08 50.11102 8.43364 10074 ft 274 kts 257°
2026-05-07 19:08 50.11055 8.40413 10062 ft 275 kts 283°
2026-05-07 19:09 50.11643 8.37588 10071 ft 274 kts 291°
2026-05-07 19:09 50.12370 8.34848 10072 ft 272 kts 293°
2026-05-07 19:09 50.13108 8.32148 10064 ft 270 kts 293°
2026-05-07 19:09 50.13846 8.29459 10057 ft 269 kts 293°
2026-05-07 19:10 50.14585 8.26781 10057 ft 268 kts 293°
2026-05-07 19:10 50.15325 8.24107 10056 ft 268 kts 293°
2026-05-07 19:10 50.16065 8.21437 10066 ft 268 kts 293°
2026-05-07 19:10 50.16808 8.18766 10066 ft 269 kts 293°
2026-05-07 19:11 50.17554 8.16082 10069 ft 270 kts 293°
2026-05-07 19:11 50.18295 8.13388 10069 ft 269 kts 290°
2026-05-07 19:11 50.18586 8.10538 9882 ft 269 kts 264°
2026-05-07 19:11 50.17993 8.07797 9544 ft 269 kts 236°
2026-05-07 19:12 50.16682 8.05735 9121 ft 270 kts 218°
2026-05-07 19:12 50.15135 8.04075 8740 ft 269 kts 214°
2026-05-07 19:12 50.13574 8.02512 8514 ft 267 kts 214°
2026-05-07 19:12 50.12078 8.01030 8297 ft 265 kts 213°
2026-05-07 19:13 50.10532 7.99509 8174 ft 263 kts 213°
2026-05-07 19:13 50.08976 7.97986 8078 ft 264 kts 213°
2026-05-07 19:13 50.07416 7.96462 7972 ft 265 kts 213°
2026-05-07 19:13 50.05835 7.94919 7730 ft 271 kts 213°
2026-05-07 19:14 50.04243 7.93369 7584 ft 268 kts 213°
2026-05-07 19:14 50.02658 7.91908 7438 ft 261 kts 204°
2026-05-07 19:14 50.00886 7.91419 7334 ft 263 kts 175°
2026-05-07 19:14 49.99113 7.92061 7260 ft 267 kts 164°
2026-05-07 19:15 49.97325 7.92927 7115 ft 271 kts 163°
2026-05-07 19:15 49.95492 7.93820 6857 ft 273 kts 163°
2026-05-07 19:15 49.93691 7.94704 6600 ft 268 kts 163°
2026-05-07 19:15 49.92072 7.96009 6301 ft 264 kts 137°
2026-05-07 19:16 49.91084 7.98323 6045 ft 262 kts 106°
2026-05-07 19:16 49.90978 8.01105 5789 ft 260 kts 75°
2026-05-07 19:16 49.91744 8.03636 5537 ft 254 kts 55°
2026-05-07 19:16 49.92686 8.05962 5313 ft 256 kts 59°
2026-05-07 19:17 49.93541 8.08387 5111 ft 255 kts 61°
2026-05-07 19:17 49.94320 8.10845 5061 ft 253 kts 65°
2026-05-07 19:17 49.94946 8.13398 5007 ft 254 kts 77°
2026-05-07 19:17 49.95001 8.16099 5029 ft 257 kts 93°
2026-05-07 19:18 49.94866 8.18892 4992 ft 261 kts 91°
2026-05-07 19:18 49.95129 8.21685 4629 ft 263 kts 69°
2026-05-07 19:18 49.95785 8.24314 4283 ft 260 kts 68°
2026-05-07 19:18 49.96407 8.26907 3908 ft 250 kts 68°
2026-05-07 19:19 49.96992 8.29368 3581 ft 234 kts 68°
2026-05-07 19:19 49.97536 8.31644 3263 ft 216 kts 68°
2026-05-07 19:19 49.98044 8.33761 2992 ft 204 kts 68°
2026-05-07 19:19 49.98536 8.35811 2778 ft 202 kts 68°
2026-05-07 19:20 49.99017 8.37816 2496 ft 193 kts 68°
2026-05-07 19:20 49.99474 8.39727 2191 ft 184 kts 68°
2026-05-07 19:20 49.99903 8.41520 1948 ft 170 kts 68°
2026-05-07 19:20 50.00307 8.43205 1731 ft 162 kts 69°
2026-05-07 19:21 50.00692 8.44815 1537 ft 156 kts 69°
2026-05-07 19:21 50.01067 8.46382 1361 ft 155 kts 69°
2026-05-07 19:21 50.01456 8.47970 1159 ft 160 kts 68°
2026-05-07 19:21 50.01858 8.49574 949 ft 157 kts 69°
2026-05-07 19:22 50.02226 8.51156 732 ft 155 kts 70°
2026-05-07 19:22 50.02596 8.52733 432 ft 152 kts 70°
2026-05-07 19:22 50.02959 8.54249 354 ft 146 kts 69°
2026-05-07 19:22 50.03268 8.55564 351 ft 109 kts 70°
2026-05-07 19:23 50.03478 8.56444 363 ft 65 kts 70°
2026-05-07 19:23 50.03581 8.56876 362 ft 20 kts 70°
2026-05-07 19:23 50.03595 8.56936 361 ft 9 kts 70°
2026-05-07 19:23 50.03599 8.57119 363 ft 18 kts 108°
2026-05-07 19:24 50.03551 8.57288 362 ft 11 kts 115°
2026-05-07 19:24 50.03547 8.57302 367 ft 0 kts 114°
2026-05-07 19:24 50.03546 8.57304 367 ft 1 kts 114°
2026-05-07 19:24 50.03544 8.57312 367 ft 1 kts 114°
2026-05-07 19:25 50.03539 8.57330 364 ft 7 kts 114°
2026-05-07 19:25 50.03468 8.57428 367 ft 16 kts 167°
2026-05-07 19:25 50.03400 8.57311 365 ft 16 kts 250°
2026-05-07 19:25 50.03360 8.57146 365 ft 17 kts 249°
2026-05-07 19:26 50.03320 8.56979 361 ft 17 kts 249°
2026-05-07 19:26 50.03281 8.56811 362 ft 17 kts 250°
2026-05-07 19:26 50.03241 8.56640 359 ft 16 kts 250°
2026-05-07 19:26 50.03202 8.56480 356 ft 16 kts 248°
2026-05-07 19:27 50.03164 8.56321 357 ft 16 kts 250°
2026-05-07 19:27 50.03124 8.56153 354 ft 19 kts 249°
2026-05-07 19:27 50.03078 8.55962 356 ft 19 kts 249°
2026-05-07 19:27 50.03031 8.55768 358 ft 19 kts 249°
2026-05-07 19:28 50.02986 8.55573 357 ft 19 kts 249°
2026-05-07 19:28 50.02938 8.55379 355 ft 19 kts 250°
2026-05-07 19:28 50.02892 8.55184 357 ft 19 kts 249°
2026-05-07 19:28 50.02846 8.54990 352 ft 19 kts 249°
2026-05-07 19:29 50.02783 8.54879 356 ft 12 kts 170°
2026-05-07 19:29 50.02703 8.54929 355 ft 12 kts 160°
2026-05-07 19:29 50.02623 8.54959 354 ft 11 kts 197°
2026-05-07 19:29 50.02596 8.54915 356 ft 0 kts 242°
2026-05-07 19:30 50.02594 8.54907 351 ft 0 kts 248°